BEIDOU-3 M25 (C47)

Last updated on Sat Aug 15 2026 00:03:26 GMT+0000 (Coordinated Universal Time)

1 61186U 24168B 26225.52335887 -.00000060 00000+0 00000+0 0 9996 2 61186 54.4189 300.2466 0003892 287.8381 171.0549 1.86229979 12851
UTC large
Height (km)
Speed (km/s)
/
Latitude / Longitude
Inclination (degrees)
Orbital Period (minutes)
Azimuth
Elevation
Range (km)
Doppler Factor

Next 0 passes for location: London (51.5072 / 0.1276)

No passes found over London.
BEIDOU-3 M25 (C47)